Terminal Aerodrome Forecast
Issued by NWS Sterling, VA

Current Version | Previous Version | Graphics & Text | Print | Product List | Glossary On
Versions: 1 2 3 4 5 6 7 8 9 10 11 12 13 14 15 16 17
000
FTUS41 KLWX 042340
TAFMRB
TAF
KMRB 042340Z 0500/0524 33005KT P6SM FEW090
     FM051600 30009KT P6SM FEW250=

USA.gov is the U.S. government's official web portal to all federal, state and local government web resources and services.